Location: Kaltenbach
(49.2000°N, 7.7500°E)
Time: 11:30:43
(UTC+00:00)

Cosmos 1674 - Pass Details

Date: 24 January 2020
Orbit: 495 x 518 km, 82.5° (Epoch: 19 February)

Event Time Altitude Azimuth Distance (km) Brightness Sun altitude
Rises 16:40:40 0° 208° (SSW) 2,576 7.2 -5.1°
Reaches altitude 10° 16:42:53 10° 217° (SW) 1,696 6.4 -5.4°
Maximum altitude 16:46:21 37° 286° (WNW) 792 4.2 -5.9°
Drops below altitude 10° 16:49:50 10° 355° (N) 1,708 5.2 -6.5°
Sets 16:52:05 0° 4° (N) 2,596 6.0 -6.8°
